Year,Month,Day,Hour,Minute,Value (Times are PST for temperature in C)
2008,07,18,00,00,11.90
2008,07,18,00,01,11.90
2008,07,18,00,02,11.90
2008,07,18,00,03,11.90
2008,07,18,00,04,11.90
2008,07,18,00,05,11.90
2008,07,18,00,06,11.90
2008,07,18,00,07,11.90
2008,07,18,00,08,11.90
2008,07,18,00,09,11.90
2008,07,18,00,10,11.80
2008,07,18,00,11,11.80
2008,07,18,00,12,11.80
2008,07,18,00,13,11.80
2008,07,18,00,14,11.80
2008,07,18,00,15,11.80
2008,07,18,00,16,11.80
2008,07,18,00,17,11.80
2008,07,18,00,18,11.80
2008,07,18,00,19,11.80
2008,07,18,00,20,11.80
2008,07,18,00,21,11.80
2008,07,18,00,22,11.80
2008,07,18,00,23,11.80
2008,07,18,00,24,11.80
2008,07,18,00,25,11.80
2008,07,18,00,26,11.80
2008,07,18,00,27,11.80
2008,07,18,00,28,11.80
2008,07,18,00,29,11.80
2008,07,18,00,30,11.70
2008,07,18,00,31,11.70
2008,07,18,00,32,11.70
2008,07,18,00,33,11.70
2008,07,18,00,34,11.70
2008,07,18,00,35,11.70
2008,07,18,00,36,11.70
2008,07,18,00,37,11.70
2008,07,18,00,38,11.70
2008,07,18,00,39,11.60
2008,07,18,00,40,11.60
2008,07,18,00,41,11.60
2008,07,18,00,42,11.60
2008,07,18,00,43,11.60
2008,07,18,00,44,11.50
2008,07,18,00,45,11.50
2008,07,18,00,46,11.50
2008,07,18,00,47,11.50
2008,07,18,00,48,11.50
2008,07,18,00,49,11.50
2008,07,18,00,50,11.50
2008,07,18,00,51,11.50
2008,07,18,00,52,11.50
2008,07,18,00,53,11.50
2008,07,18,00,54,11.40
2008,07,18,00,55,11.40
2008,07,18,00,56,11.40
2008,07,18,00,57,11.40
2008,07,18,00,58,11.40
2008,07,18,00,59,11.40
2008,07,18,01,00,11.40
2008,07,18,01,01,11.40
2008,07,18,01,02,11.40
2008,07,18,01,03,11.40
2008,07,18,01,04,11.40
2008,07,18,01,05,11.30
2008,07,18,01,06,11.30
2008,07,18,01,07,11.30
2008,07,18,01,08,11.30
2008,07,18,01,09,11.30
2008,07,18,01,10,11.30
2008,07,18,01,11,11.30
2008,07,18,01,12,11.30
2008,07,18,01,13,11.30
2008,07,18,01,14,11.30
2008,07,18,01,15,11.30
2008,07,18,01,16,11.30
2008,07,18,01,17,11.30
2008,07,18,01,18,11.30
2008,07,18,01,19,11.30
2008,07,18,01,20,11.30
2008,07,18,01,21,11.30
2008,07,18,01,22,11.30
2008,07,18,01,23,11.30
2008,07,18,01,24,11.30
2008,07,18,01,25,11.30
2008,07,18,01,26,11.30
2008,07,18,01,27,11.30
2008,07,18,01,28,11.20
2008,07,18,01,29,11.20
2008,07,18,01,30,11.20
2008,07,18,01,31,11.20
2008,07,18,01,32,11.20
2008,07,18,01,33,11.20
2008,07,18,01,34,11.20
2008,07,18,01,35,11.20
2008,07,18,01,36,11.20
2008,07,18,01,37,11.20
2008,07,18,01,38,11.20
2008,07,18,01,39,11.20
2008,07,18,01,40,11.20
2008,07,18,01,41,11.20
2008,07,18,01,42,11.20
2008,07,18,01,43,11.20
2008,07,18,01,44,11.20
2008,07,18,01,45,11.20
2008,07,18,01,46,11.20
2008,07,18,01,47,11.20
2008,07,18,01,48,11.20
2008,07,18,01,49,11.10
2008,07,18,01,50,11.10
2008,07,18,01,51,11.10
2008,07,18,01,52,11.00
2008,07,18,01,53,11.00
2008,07,18,01,54,11.00
2008,07,18,01,55,10.90
2008,07,18,01,56,10.90
2008,07,18,01,57,10.90
2008,07,18,01,58,11.00
2008,07,18,01,59,11.00
2008,07,18,02,00,11.00
2008,07,18,02,01,11.00
2008,07,18,02,02,10.90
2008,07,18,02,03,10.90
2008,07,18,02,04,10.90
2008,07,18,02,05,10.90
2008,07,18,02,06,10.90
2008,07,18,02,07,10.90
2008,07,18,02,08,10.90
2008,07,18,02,09,10.90
2008,07,18,02,10,10.90
2008,07,18,02,11,10.90
2008,07,18,02,12,10.90
2008,07,18,02,13,10.90
2008,07,18,02,14,10.90
2008,07,18,02,15,10.80
2008,07,18,02,16,10.80
2008,07,18,02,17,10.80
2008,07,18,02,18,10.80
2008,07,18,02,19,10.80
2008,07,18,02,20,10.80
2008,07,18,02,21,10.80
2008,07,18,02,22,10.80
2008,07,18,02,23,10.80
2008,07,18,02,24,10.80
2008,07,18,02,25,10.80
2008,07,18,02,26,10.80
2008,07,18,02,27,10.80
2008,07,18,02,28,10.80
2008,07,18,02,29,10.80
2008,07,18,02,30,10.80
2008,07,18,02,31,10.80
2008,07,18,02,32,10.80
2008,07,18,02,33,10.80
2008,07,18,02,34,10.70
2008,07,18,02,35,10.70
2008,07,18,02,36,10.70
2008,07,18,02,37,10.70
2008,07,18,02,38,10.70
2008,07,18,02,39,10.70
2008,07,18,02,40,10.70
2008,07,18,02,41,10.70
2008,07,18,02,42,10.70
2008,07,18,02,43,10.70
2008,07,18,02,44,10.70
2008,07,18,02,45,10.70
2008,07,18,02,46,10.70
2008,07,18,02,47,10.70
2008,07,18,02,48,10.60
2008,07,18,02,49,10.60
2008,07,18,02,50,10.70
2008,07,18,02,51,10.70
2008,07,18,02,52,10.70
2008,07,18,02,53,10.70
2008,07,18,02,54,10.70
2008,07,18,02,55,10.70
2008,07,18,02,56,10.70
2008,07,18,02,57,10.70
2008,07,18,02,58,10.70
2008,07,18,02,59,10.70
2008,07,18,03,00,10.70
2008,07,18,03,01,10.70
2008,07,18,03,02,10.70
2008,07,18,03,03,10.70
2008,07,18,03,04,10.70
2008,07,18,03,05,10.70
2008,07,18,03,06,10.60
2008,07,18,03,07,10.60
2008,07,18,03,08,10.60
2008,07,18,03,09,10.60
2008,07,18,03,10,10.60
2008,07,18,03,11,10.60
2008,07,18,03,12,10.60
2008,07,18,03,13,10.60
2008,07,18,03,14,10.60
2008,07,18,03,15,10.60
2008,07,18,03,16,10.60
2008,07,18,03,17,10.60
2008,07,18,03,18,10.60
2008,07,18,03,19,10.60
2008,07,18,03,20,10.60
2008,07,18,03,21,10.60
2008,07,18,03,22,10.60
2008,07,18,03,23,10.60
2008,07,18,03,24,10.60
2008,07,18,03,25,10.60
2008,07,18,03,26,10.60
2008,07,18,03,27,10.60
2008,07,18,03,28,10.60
2008,07,18,03,29,10.60
2008,07,18,03,30,10.60
2008,07,18,03,31,10.60
2008,07,18,03,32,10.60
2008,07,18,03,33,10.60
2008,07,18,03,34,10.60
2008,07,18,03,35,10.60
2008,07,18,03,36,10.60
2008,07,18,03,37,10.60
2008,07,18,03,38,10.60
2008,07,18,03,39,10.60
2008,07,18,03,40,10.60
2008,07,18,03,41,10.60
2008,07,18,03,42,10.60
2008,07,18,03,43,10.60
2008,07,18,03,44,10.60
2008,07,18,03,45,10.70
2008,07,18,03,46,10.70
2008,07,18,03,47,10.60
2008,07,18,03,48,10.60
2008,07,18,03,49,10.60
2008,07,18,03,50,10.60
2008,07,18,03,51,10.60
2008,07,18,03,52,10.50
2008,07,18,03,53,10.50
2008,07,18,03,54,10.50
2008,07,18,03,55,10.50
2008,07,18,03,56,10.50
2008,07,18,03,57,10.50
2008,07,18,03,58,10.50
2008,07,18,03,59,10.50
2008,07,18,04,00,10.50
2008,07,18,04,01,10.50
2008,07,18,04,02,10.50
2008,07,18,04,03,10.50
2008,07,18,04,04,10.50
2008,07,18,04,05,10.50
2008,07,18,04,06,10.50
2008,07,18,04,07,10.50
2008,07,18,04,08,10.50
2008,07,18,04,09,10.50
2008,07,18,04,10,10.50
2008,07,18,04,11,10.50
2008,07,18,04,12,10.50
2008,07,18,04,13,10.50
2008,07,18,04,14,10.50
2008,07,18,04,15,10.50
2008,07,18,04,16,10.50
2008,07,18,04,17,10.50
2008,07,18,04,18,10.40
2008,07,18,04,19,10.40
2008,07,18,04,20,10.50
2008,07,18,04,21,10.50
2008,07,18,04,22,10.50
2008,07,18,04,23,10.60
2008,07,18,04,24,10.60
2008,07,18,04,25,10.60
2008,07,18,04,26,10.60
2008,07,18,04,27,10.50
2008,07,18,04,28,10.50
2008,07,18,04,29,10.50
2008,07,18,04,30,10.50
2008,07,18,04,31,10.50
2008,07,18,04,32,10.50
2008,07,18,04,33,10.50
2008,07,18,04,34,10.50
2008,07,18,04,35,10.50
2008,07,18,04,36,10.50
2008,07,18,04,37,10.50
2008,07,18,04,38,10.50
2008,07,18,04,39,10.50
2008,07,18,04,40,10.50
2008,07,18,04,41,10.50
2008,07,18,04,42,10.50
2008,07,18,04,43,10.50
2008,07,18,04,44,10.50
2008,07,18,04,45,10.60
2008,07,18,04,46,10.50
2008,07,18,04,47,10.50
2008,07,18,04,48,10.50
2008,07,18,04,49,10.50
2008,07,18,04,50,10.50
2008,07,18,04,51,10.50
2008,07,18,04,52,10.50
2008,07,18,04,53,10.50
2008,07,18,04,54,10.50
2008,07,18,04,55,10.50
2008,07,18,04,56,10.50
2008,07,18,04,57,10.50
2008,07,18,04,58,10.50
2008,07,18,04,59,10.50
2008,07,18,05,00,10.50
2008,07,18,05,01,10.60
2008,07,18,05,02,10.60
2008,07,18,05,03,10.50
2008,07,18,05,04,10.50
2008,07,18,05,05,10.50
2008,07,18,05,06,10.50
2008,07,18,05,07,10.50
2008,07,18,05,08,10.40
2008,07,18,05,09,10.50
2008,07,18,05,10,10.50
2008,07,18,05,11,10.50
2008,07,18,05,12,10.60
2008,07,18,05,13,10.50
2008,07,18,05,14,10.50
2008,07,18,05,15,10.50
2008,07,18,05,16,10.50
2008,07,18,05,17,10.40
2008,07,18,05,18,10.40
2008,07,18,05,19,10.40
2008,07,18,05,20,10.40
2008,07,18,05,21,10.40
2008,07,18,05,22,10.40
2008,07,18,05,23,10.40
2008,07,18,05,24,10.50
2008,07,18,05,25,10.40
2008,07,18,05,26,10.40
2008,07,18,05,27,10.40
2008,07,18,05,28,10.40
2008,07,18,05,29,10.40
2008,07,18,05,30,10.40
2008,07,18,05,31,10.40
2008,07,18,05,32,10.40
2008,07,18,05,33,10.40
2008,07,18,05,34,10.40
2008,07,18,05,35,10.40
2008,07,18,05,36,10.40
2008,07,18,05,37,10.40
2008,07,18,05,38,10.40
2008,07,18,05,39,10.40
2008,07,18,05,40,10.40
2008,07,18,05,41,10.40
2008,07,18,05,42,10.40
2008,07,18,05,43,10.40
2008,07,18,05,44,10.40
2008,07,18,05,45,10.30
2008,07,18,05,46,10.30
2008,07,18,05,47,10.40
2008,07,18,05,48,10.40
2008,07,18,05,49,10.40
2008,07,18,05,50,10.40
2008,07,18,05,51,10.40
2008,07,18,05,52,10.40
2008,07,18,05,53,10.40
2008,07,18,05,54,10.50
2008,07,18,05,55,10.50
2008,07,18,05,56,10.50
2008,07,18,05,57,10.50
2008,07,18,05,58,10.50
2008,07,18,05,59,10.50
2008,07,18,06,00,10.50
2008,07,18,06,01,10.50
2008,07,18,06,02,10.50
2008,07,18,06,03,10.50
2008,07,18,06,04,10.40
2008,07,18,06,05,10.40
2008,07,18,06,06,10.40
2008,07,18,06,07,10.40
2008,07,18,06,08,10.40
2008,07,18,06,09,10.40
2008,07,18,06,10,10.40
2008,07,18,06,11,10.40
2008,07,18,06,12,10.40
2008,07,18,06,13,10.40
2008,07,18,06,14,10.40
2008,07,18,06,15,10.40
2008,07,18,06,16,10.40
2008,07,18,06,17,10.40
2008,07,18,06,18,10.40
2008,07,18,06,19,10.50
2008,07,18,06,20,10.50
2008,07,18,06,21,10.50
2008,07,18,06,22,10.60
2008,07,18,06,23,10.60
2008,07,18,06,24,10.60
2008,07,18,06,25,10.60
2008,07,18,06,26,10.60
2008,07,18,06,27,10.60
2008,07,18,06,28,10.60
2008,07,18,06,29,10.60
2008,07,18,06,30,10.60
2008,07,18,06,31,10.70
2008,07,18,06,32,10.70
2008,07,18,06,33,10.70
2008,07,18,06,34,10.70
2008,07,18,06,35,10.80
2008,07,18,06,36,10.80
2008,07,18,06,37,10.80
2008,07,18,06,38,10.80
2008,07,18,06,39,10.90
2008,07,18,06,40,10.90
2008,07,18,06,41,10.90
2008,07,18,06,42,11.00
2008,07,18,06,43,11.00
2008,07,18,06,44,11.00
2008,07,18,06,45,11.10
2008,07,18,06,46,11.10
2008,07,18,06,47,11.10
2008,07,18,06,48,11.20
2008,07,18,06,49,11.20
2008,07,18,06,50,11.20
2008,07,18,06,51,11.30
2008,07,18,06,52,11.30
2008,07,18,06,53,11.30
2008,07,18,06,54,11.30
2008,07,18,06,55,11.40
2008,07,18,06,56,11.40
2008,07,18,06,57,11.50
2008,07,18,06,58,11.50
2008,07,18,06,59,11.60
2008,07,18,07,00,11.60
2008,07,18,07,01,11.60
2008,07,18,07,02,11.60
2008,07,18,07,03,11.70
2008,07,18,07,04,11.70
2008,07,18,07,05,11.70
2008,07,18,07,06,11.70
2008,07,18,07,07,11.80
2008,07,18,07,08,11.80
2008,07,18,07,09,11.80
2008,07,18,07,10,11.90
2008,07,18,07,11,11.90
2008,07,18,07,12,11.90
2008,07,18,07,13,11.90
2008,07,18,07,14,11.90
2008,07,18,07,15,11.90
2008,07,18,07,16,12.00
2008,07,18,07,17,12.00
2008,07,18,07,18,12.10
2008,07,18,07,19,12.10
2008,07,18,07,20,12.20
2008,07,18,07,21,12.20
2008,07,18,07,22,12.20
2008,07,18,07,23,12.30
2008,07,18,07,24,12.30
2008,07,18,07,25,12.30
2008,07,18,07,26,12.30
2008,07,18,07,27,12.40
2008,07,18,07,28,12.40
2008,07,18,07,29,12.40
2008,07,18,07,30,12.50
2008,07,18,07,31,12.50
2008,07,18,07,32,12.60
2008,07,18,07,33,12.60
2008,07,18,07,34,12.60
2008,07,18,07,35,12.60
2008,07,18,07,36,12.60
2008,07,18,07,37,12.60
2008,07,18,07,38,12.60
2008,07,18,07,39,12.70
2008,07,18,07,40,12.60
2008,07,18,07,41,12.60
2008,07,18,07,42,12.60
2008,07,18,07,43,12.60
2008,07,18,07,44,12.60
2008,07,18,07,45,12.60
2008,07,18,07,46,12.60
2008,07,18,07,47,12.60
2008,07,18,07,48,12.60
2008,07,18,07,49,12.60
2008,07,18,07,50,12.60
2008,07,18,07,51,12.60
2008,07,18,07,52,12.60
2008,07,18,07,53,12.60
2008,07,18,07,54,12.60
2008,07,18,07,55,12.50
2008,07,18,07,56,12.50
2008,07,18,07,57,12.50
2008,07,18,07,58,12.60
2008,07,18,07,59,12.60
2008,07,18,08,00,12.60
2008,07,18,08,01,12.70
2008,07,18,08,02,12.70
2008,07,18,08,03,12.70
2008,07,18,08,04,12.80
2008,07,18,08,05,12.90
2008,07,18,08,06,13.00
2008,07,18,08,07,13.10
2008,07,18,08,08,13.20
2008,07,18,08,09,13.20
2008,07,18,08,10,13.30
2008,07,18,08,11,13.40
2008,07,18,08,12,13.40
2008,07,18,08,13,13.50
2008,07,18,08,14,13.50
2008,07,18,08,15,13.60
2008,07,18,08,16,13.70
2008,07,18,08,17,13.70
2008,07,18,08,18,13.80
2008,07,18,08,19,13.80
2008,07,18,08,20,13.90
2008,07,18,08,21,14.00
2008,07,18,08,22,14.00
2008,07,18,08,23,14.10
2008,07,18,08,24,14.10
2008,07,18,08,25,14.20
2008,07,18,08,26,14.20
2008,07,18,08,27,14.30
2008,07,18,08,28,14.30
2008,07,18,08,29,14.50
2008,07,18,08,30,14.50
2008,07,18,08,31,14.60
2008,07,18,08,32,14.70
2008,07,18,08,33,14.80
2008,07,18,08,34,15.00
2008,07,18,08,35,15.00
2008,07,18,08,36,15.00
2008,07,18,08,37,15.00
2008,07,18,08,38,15.10
2008,07,18,08,39,15.20
2008,07,18,08,40,15.20
2008,07,18,08,41,15.30
2008,07,18,08,42,15.30
2008,07,18,08,43,15.40
2008,07,18,08,44,15.40
2008,07,18,08,45,15.40
2008,07,18,08,46,15.50
2008,07,18,08,47,15.50
2008,07,18,08,48,15.60
2008,07,18,08,49,15.60
2008,07,18,08,50,15.60
2008,07,18,08,51,15.60
2008,07,18,08,52,15.70
2008,07,18,08,53,15.70
2008,07,18,08,54,15.70
2008,07,18,08,55,15.70
2008,07,18,08,56,15.70
2008,07,18,08,57,15.70
2008,07,18,08,58,15.70
2008,07,18,08,59,15.70
2008,07,18,09,00,15.70
2008,07,18,09,01,15.80
2008,07,18,09,02,15.80
2008,07,18,09,03,15.80
2008,07,18,09,04,15.90
2008,07,18,09,05,15.90
2008,07,18,09,06,16.00
2008,07,18,09,07,16.00
2008,07,18,09,08,16.10
2008,07,18,09,09,16.10
2008,07,18,09,10,16.20
2008,07,18,09,11,16.20
2008,07,18,09,12,16.20
2008,07,18,09,13,16.20
2008,07,18,09,14,16.30
2008,07,18,09,15,16.30
2008,07,18,09,16,16.30
2008,07,18,09,17,16.30
2008,07,18,09,18,16.40
2008,07,18,09,19,16.40
2008,07,18,09,20,16.50
2008,07,18,09,21,16.60
2008,07,18,09,22,16.70
2008,07,18,09,23,16.70
2008,07,18,09,24,16.80
2008,07,18,09,25,16.80
2008,07,18,09,26,16.90
2008,07,18,09,27,16.90
2008,07,18,09,28,17.00
2008,07,18,09,29,17.00
2008,07,18,09,30,17.10
2008,07,18,09,31,17.20
2008,07,18,09,32,17.20
2008,07,18,09,33,17.30
2008,07,18,09,34,17.30
2008,07,18,09,35,17.30
2008,07,18,09,36,17.30
2008,07,18,09,37,17.40
2008,07,18,09,38,17.40
2008,07,18,09,39,17.40
2008,07,18,09,40,17.30
2008,07,18,09,41,17.30
2008,07,18,09,42,17.30
2008,07,18,09,43,17.30
2008,07,18,09,44,17.20
2008,07,18,09,45,17.10
2008,07,18,09,46,17.10
2008,07,18,09,47,17.10
2008,07,18,09,48,17.00
2008,07,18,09,49,17.00
2008,07,18,09,50,17.00
2008,07,18,09,51,17.00
2008,07,18,09,52,16.90
2008,07,18,09,53,16.90
2008,07,18,09,54,16.90
2008,07,18,09,55,16.90
2008,07,18,09,56,16.80
2008,07,18,09,57,16.80
2008,07,18,09,58,16.80
2008,07,18,09,59,16.80
2008,07,18,10,00,16.80
2008,07,18,10,01,16.90
2008,07,18,10,02,16.80
2008,07,18,10,03,16.80
2008,07,18,10,04,16.80
2008,07,18,10,05,16.80
2008,07,18,10,06,16.80
2008,07,18,10,07,16.80
2008,07,18,10,08,16.80
2008,07,18,10,09,16.70
2008,07,18,10,10,16.80
2008,07,18,10,11,16.80
2008,07,18,10,12,16.80
2008,07,18,10,13,16.80
2008,07,18,10,14,16.80
2008,07,18,10,15,16.90
2008,07,18,10,16,16.80
2008,07,18,10,17,16.90
2008,07,18,10,18,16.80
2008,07,18,10,19,16.80
2008,07,18,10,20,16.80
2008,07,18,10,21,16.90
2008,07,18,10,22,16.90
2008,07,18,10,23,16.90
2008,07,18,10,24,16.90
2008,07,18,10,25,16.90
2008,07,18,10,26,17.00
2008,07,18,10,27,17.00
2008,07,18,10,28,17.10
2008,07,18,10,29,17.20
2008,07,18,10,30,17.20
2008,07,18,10,31,17.20
2008,07,18,10,32,17.20
2008,07,18,10,33,17.20
2008,07,18,10,34,17.20
2008,07,18,10,35,17.20
2008,07,18,10,36,17.20
2008,07,18,10,37,17.10
2008,07,18,10,38,17.10
2008,07,18,10,39,17.00
2008,07,18,10,40,16.90
2008,07,18,10,41,16.90
2008,07,18,10,42,16.80
2008,07,18,10,43,16.80
2008,07,18,10,44,16.80
2008,07,18,10,45,16.90
2008,07,18,10,46,17.00
2008,07,18,10,47,17.00
2008,07,18,10,48,17.10
2008,07,18,10,49,17.10
2008,07,18,10,50,17.20
2008,07,18,10,51,17.30
2008,07,18,10,52,17.30
2008,07,18,10,53,17.40
2008,07,18,10,54,17.40
2008,07,18,10,55,17.40
2008,07,18,10,56,17.40
2008,07,18,10,57,17.40
2008,07,18,10,58,17.50
2008,07,18,10,59,17.50
2008,07,18,11,00,17.50
2008,07,18,11,01,17.50
2008,07,18,11,02,17.40
2008,07,18,11,03,17.30
2008,07,18,11,04,17.20
2008,07,18,11,05,17.20
2008,07,18,11,06,17.10
2008,07,18,11,07,17.00
2008,07,18,11,08,17.00
2008,07,18,11,09,17.00
2008,07,18,11,10,17.00
2008,07,18,11,11,16.90
2008,07,18,11,12,16.80
2008,07,18,11,13,16.80
2008,07,18,11,14,16.80
2008,07,18,11,15,16.80
2008,07,18,11,16,16.80
2008,07,18,11,17,16.80
2008,07,18,11,18,16.80
2008,07,18,11,19,16.70
2008,07,18,11,20,16.70
2008,07,18,11,21,16.70
2008,07,18,11,22,16.80
2008,07,18,11,23,16.80
2008,07,18,11,24,16.80
2008,07,18,11,25,16.80
2008,07,18,11,26,16.80
2008,07,18,11,27,16.80
2008,07,18,11,28,16.80
2008,07,18,11,29,16.90
2008,07,18,11,30,17.00
2008,07,18,11,31,17.10
2008,07,18,11,32,17.10
2008,07,18,11,33,17.20
2008,07,18,11,34,17.20
2008,07,18,11,35,17.30
2008,07,18,11,36,17.20
2008,07,18,11,37,17.20
2008,07,18,11,38,17.10
2008,07,18,11,39,17.10
2008,07,18,11,40,17.10
2008,07,18,11,41,17.20
2008,07,18,11,42,17.30
2008,07,18,11,43,17.60
2008,07,18,11,44,17.80
2008,07,18,11,45,18.00
2008,07,18,11,46,18.20
2008,07,18,11,47,18.30
2008,07,18,11,48,18.50
2008,07,18,11,49,18.70
2008,07,18,11,50,18.70
2008,07,18,11,51,18.80
2008,07,18,11,52,18.80
2008,07,18,11,53,18.80
2008,07,18,11,54,18.80
2008,07,18,11,55,18.80
2008,07,18,11,56,18.80
2008,07,18,11,57,18.80
2008,07,18,11,58,18.80
2008,07,18,11,59,18.70
2008,07,18,12,00,18.60
2008,07,18,12,01,18.60
2008,07,18,12,02,18.60
2008,07,18,12,03,18.50
2008,07,18,12,04,18.50
2008,07,18,12,05,18.50
2008,07,18,12,06,18.40
2008,07,18,12,07,18.20
2008,07,18,12,08,18.00
2008,07,18,12,09,17.90
2008,07,18,12,10,17.80
2008,07,18,12,11,17.80
2008,07,18,12,12,17.80
2008,07,18,12,13,17.80
2008,07,18,12,14,17.90
2008,07,18,12,15,17.90
2008,07,18,12,16,17.90
2008,07,18,12,17,17.80
2008,07,18,12,18,17.80
2008,07,18,12,19,17.60
2008,07,18,12,20,17.60
2008,07,18,12,21,17.60
2008,07,18,12,22,17.60
2008,07,18,12,23,17.50
2008,07,18,12,24,17.50
2008,07,18,12,25,17.40
2008,07,18,12,26,17.30
2008,07,18,12,27,17.30
2008,07,18,12,28,17.30
2008,07,18,12,29,17.20
2008,07,18,12,30,17.20
2008,07,18,12,31,17.30
2008,07,18,12,32,17.30
2008,07,18,12,33,17.30
2008,07,18,12,34,17.40
2008,07,18,12,35,17.40
2008,07,18,12,36,17.50
2008,07,18,12,37,17.50
2008,07,18,12,38,17.60
2008,07,18,12,39,17.60
2008,07,18,12,40,17.60
2008,07,18,12,41,17.60
2008,07,18,12,42,17.60
2008,07,18,12,43,17.50
2008,07,18,12,44,17.60
2008,07,18,12,45,17.60
2008,07,18,12,46,17.70
2008,07,18,12,47,17.80
2008,07,18,12,48,17.80
2008,07,18,12,49,17.90
2008,07,18,12,50,17.90
2008,07,18,12,51,17.90
2008,07,18,12,52,17.70
2008,07,18,12,53,17.70
2008,07,18,12,54,17.60
2008,07,18,12,55,17.60
2008,07,18,12,56,17.60
2008,07,18,12,57,17.60
2008,07,18,12,58,17.60
2008,07,18,12,59,17.60
2008,07,18,13,00,17.50
2008,07,18,13,01,17.60
2008,07,18,13,02,17.60
2008,07,18,13,03,17.70
2008,07,18,13,04,17.70
2008,07,18,13,05,17.60
2008,07,18,13,06,17.60
2008,07,18,13,07,17.50
2008,07,18,13,08,17.50
2008,07,18,13,09,17.50
2008,07,18,13,10,17.50
2008,07,18,13,11,17.40
2008,07,18,13,12,17.40
2008,07,18,13,13,17.40
2008,07,18,13,14,17.40
2008,07,18,13,15,17.40
2008,07,18,13,16,17.50
2008,07,18,13,17,17.50
2008,07,18,13,18,17.50
2008,07,18,13,19,17.60
2008,07,18,13,20,17.60
2008,07,18,13,21,17.70
2008,07,18,13,22,17.80
2008,07,18,13,23,17.90
2008,07,18,13,24,17.90
2008,07,18,13,25,17.90
2008,07,18,13,26,17.90
2008,07,18,13,27,18.00
2008,07,18,13,28,18.00
2008,07,18,13,29,18.10
2008,07,18,13,30,18.20
2008,07,18,13,31,18.30
2008,07,18,13,32,18.40
2008,07,18,13,33,18.50
2008,07,18,13,34,18.60
2008,07,18,13,35,18.80
2008,07,18,13,36,18.90
2008,07,18,13,37,18.90
2008,07,18,13,38,18.90
2008,07,18,13,39,19.00
2008,07,18,13,40,19.10
2008,07,18,13,41,19.20
2008,07,18,13,42,19.30
2008,07,18,13,43,19.30
2008,07,18,13,44,19.40
2008,07,18,13,45,19.40
2008,07,18,13,46,19.50
2008,07,18,13,47,19.60
2008,07,18,13,48,19.70
2008,07,18,13,49,19.70
2008,07,18,13,50,19.60
2008,07,18,13,51,19.60
2008,07,18,13,52,19.60
2008,07,18,13,53,19.60
2008,07,18,13,54,19.60
2008,07,18,13,55,19.50
2008,07,18,13,56,19.50
2008,07,18,13,57,19.50
2008,07,18,13,58,19.50
2008,07,18,13,59,19.60
2008,07,18,14,00,19.60
2008,07,18,14,01,19.50
2008,07,18,14,02,19.40
2008,07,18,14,03,19.40
2008,07,18,14,04,19.40
2008,07,18,14,05,19.40
2008,07,18,14,06,19.50
2008,07,18,14,07,19.60
2008,07,18,14,08,19.60
2008,07,18,14,09,19.70
2008,07,18,14,10,19.80
2008,07,18,14,11,19.80
2008,07,18,14,12,19.90
2008,07,18,14,13,19.90
2008,07,18,14,14,19.90
2008,07,18,14,15,19.90
2008,07,18,14,16,19.80
2008,07,18,14,17,19.90
2008,07,18,14,18,20.00
2008,07,18,14,19,20.10
2008,07,18,14,20,20.10
2008,07,18,14,21,20.10
2008,07,18,14,22,20.10
2008,07,18,14,23,20.20
2008,07,18,14,24,20.20
2008,07,18,14,25,20.30
2008,07,18,14,26,20.50
2008,07,18,14,27,20.60
2008,07,18,14,28,20.70
2008,07,18,14,29,20.70
2008,07,18,14,30,20.60
2008,07,18,14,31,20.60
2008,07,18,14,32,20.50
2008,07,18,14,33,20.40
2008,07,18,14,34,20.30
2008,07,18,14,35,20.30
2008,07,18,14,36,20.30
2008,07,18,14,37,20.30
2008,07,18,14,38,20.30
2008,07,18,14,39,20.30
2008,07,18,14,40,20.20
2008,07,18,14,41,20.20
2008,07,18,14,42,20.10
2008,07,18,14,43,20.10
2008,07,18,14,44,20.10
2008,07,18,14,45,20.10
2008,07,18,14,46,20.10
2008,07,18,14,47,20.10
2008,07,18,14,48,20.10
2008,07,18,14,49,20.10
2008,07,18,14,50,20.00
2008,07,18,14,51,20.00
2008,07,18,14,52,20.10
2008,07,18,14,53,20.20
2008,07,18,14,54,20.30
2008,07,18,14,55,20.50
2008,07,18,14,56,20.60
2008,07,18,14,57,20.70
2008,07,18,14,58,20.80
2008,07,18,14,59,21.00
2008,07,18,15,00,21.10
2008,07,18,15,01,21.10
2008,07,18,15,02,21.10
2008,07,18,15,03,21.10
2008,07,18,15,04,21.10
2008,07,18,15,05,21.20
2008,07,18,15,06,21.30
2008,07,18,15,07,21.30
2008,07,18,15,08,21.30
2008,07,18,15,09,21.40
2008,07,18,15,10,21.30
2008,07,18,15,11,21.30
2008,07,18,15,12,21.30
2008,07,18,15,13,21.30
2008,07,18,15,14,21.30
2008,07,18,15,15,21.20
2008,07,18,15,16,21.20
2008,07,18,15,17,21.10
2008,07,18,15,18,21.10
2008,07,18,15,19,21.10
2008,07,18,15,20,21.10
2008,07,18,15,21,21.10
2008,07,18,15,22,21.00
2008,07,18,15,23,20.90
2008,07,18,15,24,20.80
2008,07,18,15,25,20.70
2008,07,18,15,26,20.70
2008,07,18,15,27,20.70
2008,07,18,15,28,20.70
2008,07,18,15,29,20.80
2008,07,18,15,30,20.80
2008,07,18,15,31,20.80
2008,07,18,15,32,20.80
2008,07,18,15,33,20.80
2008,07,18,15,34,20.90
2008,07,18,15,35,20.80
2008,07,18,15,36,20.70
2008,07,18,15,37,20.70
2008,07,18,15,38,20.60
2008,07,18,15,39,20.50
2008,07,18,15,40,20.50
2008,07,18,15,41,20.40
2008,07,18,15,42,20.40
2008,07,18,15,43,20.30
2008,07,18,15,44,20.20
2008,07,18,15,45,20.20
2008,07,18,15,46,20.10
2008,07,18,15,47,20.00
2008,07,18,15,48,20.00
2008,07,18,15,49,20.00
2008,07,18,15,50,20.20
2008,07,18,15,51,20.30
2008,07,18,15,52,20.30
2008,07,18,15,53,20.30
2008,07,18,15,54,20.30
2008,07,18,15,55,20.20
2008,07,18,15,56,20.20
2008,07,18,15,57,20.10
2008,07,18,15,58,20.10
2008,07,18,15,59,20.10
2008,07,18,16,00,20.10
2008,07,18,16,01,20.10
2008,07,18,16,02,20.10
2008,07,18,16,03,20.00
2008,07,18,16,04,20.00
2008,07,18,16,05,20.10
2008,07,18,16,06,20.10
2008,07,18,16,07,20.10
2008,07,18,16,08,20.20
2008,07,18,16,09,20.20
2008,07,18,16,10,20.20
2008,07,18,16,11,20.20
2008,07,18,16,12,20.30
2008,07,18,16,13,20.30
2008,07,18,16,14,20.40
2008,07,18,16,15,20.40
2008,07,18,16,16,20.40
2008,07,18,16,17,20.40
2008,07,18,16,18,20.50
2008,07,18,16,19,20.50
2008,07,18,16,20,20.50
2008,07,18,16,21,20.50
2008,07,18,16,22,20.40
2008,07,18,16,23,20.40
2008,07,18,16,24,20.40
2008,07,18,16,25,20.30
2008,07,18,16,26,20.10
2008,07,18,16,27,20.00
2008,07,18,16,28,19.90
2008,07,18,16,29,20.00
2008,07,18,16,30,20.00
2008,07,18,16,31,20.00
2008,07,18,16,32,20.10
2008,07,18,16,33,20.20
2008,07,18,16,34,20.30
2008,07,18,16,35,20.40
2008,07,18,16,36,20.50
2008,07,18,16,37,20.60
2008,07,18,16,38,20.70
2008,07,18,16,39,20.70
2008,07,18,16,40,20.80
2008,07,18,16,41,20.80
2008,07,18,16,42,20.80
2008,07,18,16,43,20.80
2008,07,18,16,44,20.80
2008,07,18,16,45,20.80
2008,07,18,16,46,20.70
2008,07,18,16,47,20.70
2008,07,18,16,48,20.60
2008,07,18,16,49,20.50
2008,07,18,16,50,20.50
2008,07,18,16,51,20.40
2008,07,18,16,52,20.40
2008,07,18,16,53,20.40
2008,07,18,16,54,20.50
2008,07,18,16,55,20.50
2008,07,18,16,56,20.50
2008,07,18,16,57,20.40
2008,07,18,16,58,20.30
2008,07,18,16,59,20.30
2008,07,18,17,00,20.30
2008,07,18,17,01,20.30
2008,07,18,17,02,20.30
2008,07,18,17,03,20.40
2008,07,18,17,04,20.40
2008,07,18,17,05,20.50
2008,07,18,17,06,20.70
2008,07,18,17,07,20.80
2008,07,18,17,08,21.00
2008,07,18,17,09,21.20
2008,07,18,17,10,21.20
2008,07,18,17,11,21.30
2008,07,18,17,12,21.30
2008,07,18,17,13,21.20
2008,07,18,17,14,21.10
2008,07,18,17,15,20.90
2008,07,18,17,16,20.90
2008,07,18,17,17,20.80
2008,07,18,17,18,20.60
2008,07,18,17,19,20.40